• In Schweiz
  • Länderverzeichnis
  • Für 7 Tage
  • Wassertemperatur
  • Satellitenkarten
  • Wetterkarte
  • Widgets
  • user-avatar
    Anmelden

    Stündliche Wetter Lubumbaschi

    Heute, 17 Dezember, Sonntag

    Zeit Temperatur Niederschläge Wind Luftdruck Luftfeuchtigkeit
    00:00 +21°C° 0 mm 5 m/S 720 mmHg 31%
    01:00 +21°C° 0 mm 5 m/S 720 mmHg 32%
    02:00 +20°C° 0 mm 5 m/S 720 mmHg 34%
    03:00 +20°C° 0 mm 5 m/S 720 mmHg 34%
    04:00 +19°C° 0 mm 4 m/S 720 mmHg 34%
    05:00 +19°C° 0 mm 4 m/S 720 mmHg 34%
    06:00 +20°C° 0 mm 5 m/S 720 mmHg 31%
    07:00 +21°C° 0 mm 5 m/S 721 mmHg 29%
    08:00 +23°C° 0 mm 6 m/S 721 mmHg 25%
    09:00 +26°C° 0 mm 6 m/S 721 mmHg 22%
    10:00 +29°C° 0 mm 6 m/S 721 mmHg 20%
    11:00 +33°C° 0 mm 6 m/S 721 mmHg 17%
    12:00 +34°C° 0 mm 5 m/S 721 mmHg 16%
    13:00 +35°C° 0 mm 4 m/S 720 mmHg 14%
    14:00 +36°C° 0 mm 2 m/S 719 mmHg 13%
    15:00 +36°C° 0 mm 2 m/S 719 mmHg 13%
    16:00 +36°C° 0 mm 2 m/S 719 mmHg 13%
    17:00 +35°C° 0 mm 2 m/S 719 mmHg 13%
    18:00 +33°C° 0 mm 3 m/S 719 mmHg 15%
    19:00 +30°C° 0 mm 3 m/S 719 mmHg 17%
    20:00 +28°C° 0 mm 4 m/S 720 mmHg 19%
    21:00 +27°C° 0 mm 4 m/S 720 mmHg 19%
    22:00 +26°C° 0 mm 5 m/S 720 mmHg 20%
    23:00 +25°C° 0 mm 5 m/S 720 mmHg 21%

    Morgen, 18 Dezember, Montag

    Zeit Temperatur Niederschläge Wind Luftdruck Luftfeuchtigkeit
    00:00 +23°C° 0 mm 5 m/S 720 mmHg 22%
    01:00 +23°C° 0 mm 5 m/S 720 mmHg 22%
    02:00 +22°C° 0 mm 5 m/S 720 mmHg 23%
    03:00 +22°C° 0 mm 5 m/S 720 mmHg 23%
    04:00 +21°C° 0 mm 5 m/S 720 mmHg 24%
    05:00 +21°C° 0 mm 4 m/S 720 mmHg 24%
    06:00 +22°C° 0 mm 5 m/S 720 mmHg 23%
    07:00 +23°C° 0 mm 6 m/S 721 mmHg 22%
    08:00 +24°C° 0 mm 6 m/S 721 mmHg 21%
    09:00 +28°C° 0 mm 6 m/S 721 mmHg 18%
    10:00 +32°C° 0 mm 6 m/S 721 mmHg 16%
    11:00 +35°C° 0 mm 6 m/S 722 mmHg 14%
    12:00 +36°C° 0 mm 5 m/S 721 mmHg 13%
    13:00 +37°C° 0 mm 4 m/S 720 mmHg 12%
    14:00 +38°C° 0 mm 4 m/S 719 mmHg 12%
    15:00 +38°C° 0 mm 3 m/S 718 mmHg 12%
    16:00 +37°C° 0 mm 3 m/S 718 mmHg 13%
    17:00 +37°C° 0 mm 2 m/S 718 mmHg 13%
    18:00 +35°C° 0 mm 3 m/S 718 mmHg 15%
    19:00 +33°C° 0 mm 3 m/S 718 mmHg 17%
    20:00 +29°C° 0 mm 4 m/S 718 mmHg 18%
    21:00 +29°C° 0 mm 4 m/S 719 mmHg 18%
    22:00 +28°C° 0 mm 5 m/S 719 mmHg 18%
    23:00 +27°C° 0 mm 5 m/S 719 mmHg 18%

    übermorgen, 19 Dezember, Dienstag

    Zeit Temperatur Niederschläge Wind Luftdruck Luftfeuchtigkeit
    00:00 +26°C° 0 mm 5 m/S 719 mmHg 18%
    01:00 +26°C° 0 mm 5 m/S 718 mmHg 19%
    02:00 +25°C° 0 mm 5 m/S 718 mmHg 19%
    03:00 +23°C° 0 mm 5 m/S 718 mmHg 21%
    04:00 +23°C° 0 mm 5 m/S 718 mmHg 22%
    05:00 +22°C° 0 mm 4 m/S 718 mmHg 23%
    06:00 +23°C° 0 mm 5 m/S 719 mmHg 23%
    07:00 +25°C° 0 mm 5 m/S 720 mmHg 22%
    08:00 +26°C° 0 mm 6 m/S 720 mmHg 21%
    09:00 +29°C° 0 mm 5 m/S 720 mmHg 19%
    10:00 +33°C° 0 mm 5 m/S 721 mmHg 16%
    11:00 +36°C° 0 mm 5 m/S 721 mmHg 14%
    12:00 +37°C° 0 mm 4 m/S 720 mmHg 13%
    13:00 +38°C° 0 mm 4 m/S 719 mmHg 12%
    14:00 +39°C° 0 mm 3 m/S 718 mmHg 12%
    15:00 +39°C° 0 mm 3 m/S 718 mmHg 12%
    16:00 +39°C° 0 mm 3 m/S 717 mmHg 12%
    17:00 +38°C° 0 mm 2 m/S 717 mmHg 13%
    18:00 +36°C° 0 mm 3 m/S 717 mmHg 15%
    19:00 +34°C° 0 mm 3 m/S 718 mmHg 17%
    20:00 +32°C° 0 mm 4 m/S 718 mmHg 18%
    21:00 +30°C° 0 mm 4 m/S 718 mmHg 19%
    22:00 +29°C° 0 mm 4 m/S 718 mmHg 20%
    23:00 +28°C° 0 mm 5 m/S 719 mmHg 20%

    20 Dezember, Mittwoch

    Zeit Temperatur Niederschläge Wind Luftdruck Luftfeuchtigkeit
    00:00 +28°C° 0 mm 5 m/S 718 mmHg 21%
    01:00 +27°C° 0 mm 5 m/S 718 mmHg 22%
    02:00 +26°C° 0 mm 5 m/S 718 mmHg 22%
    03:00 +26°C° 0 mm 4 m/S 718 mmHg 24%
    04:00 +25°C° 0 mm 4 m/S 718 mmHg 25%
    05:00 +23°C° 0 mm 4 m/S 718 mmHg 26%
    06:00 +25°C° 0 mm 5 m/S 719 mmHg 25%
    07:00 +27°C° 0 mm 5 m/S 719 mmHg 24%
    08:00 +28°C° 0 mm 6 m/S 720 mmHg 23%
    09:00 +30°C° 0 mm 6 m/S 720 mmHg 20%
    10:00 +34°C° 0 mm 6 m/S 720 mmHg 17%
    11:00 +38°C° 0 mm 6 m/S 720 mmHg 14%
    12:00 +39°C° 0 mm 5 m/S 719 mmHg 13%
    13:00 +40°C° 0 mm 4 m/S 719 mmHg 12%
    14:00 +40°C° 0 mm 3 m/S 718 mmHg 12%
    15:00 +40°C° 0 mm 3 m/S 717 mmHg 12%
    16:00 +40°C° 0 mm 3 m/S 717 mmHg 12%
    17:00 +39°C° 0 mm 3 m/S 717 mmHg 13%
    18:00 +37°C° 0 mm 3 m/S 717 mmHg 15%
    19:00 +35°C° 0 mm 4 m/S 718 mmHg 17%
    20:00 +33°C° 0 mm 4 m/S 718 mmHg 19%
    21:00 +32°C° 0 mm 5 m/S 718 mmHg 20%
    22:00 +30°C° 0 mm 5 m/S 719 mmHg 21%
    23:00 +29°C° 0 mm 5 m/S 719 mmHg 22%

    21 Dezember, Donnerstag

    Zeit Temperatur Niederschläge Wind Luftdruck Luftfeuchtigkeit
    00:00 +29°C° 0 mm 5 m/S 718 mmHg 23%
    01:00 +28°C° 0 mm 5 m/S 718 mmHg 25%
    02:00 +27°C° 0 mm 4 m/S 718 mmHg 26%
    03:00 +26°C° 0 mm 4 m/S 718 mmHg 27%
    04:00 +26°C° 0 mm 4 m/S 718 mmHg 28%
    05:00 +25°C° 0 mm 4 m/S 719 mmHg 29%
    06:00 +27°C° 0 mm 5 m/S 719 mmHg 27%
    07:00 +28°C° 0 mm 6 m/S 720 mmHg 26%
    08:00 +29°C° 0 mm 6 m/S 721 mmHg 25%
    09:00 +33°C° 0 mm 6 m/S 721 mmHg 21%
    10:00 +36°C° 0 mm 6 m/S 721 mmHg 18%
    11:00 +39°C° 0 mm 6 m/S 721 mmHg 15%
    12:00 +40°C° 0 mm 5 m/S 720 mmHg 14%
    13:00 +41°C° 0 mm 4 m/S 719 mmHg 13%
    14:00 +42°C° 0 mm 3 m/S 718 mmHg 12%
    15:00 +42°C° 0 mm 3 m/S 718 mmHg 12%
    16:00 +42°C° 0 mm 3 m/S 717 mmHg 12%
    17:00 +40°C° 0 mm 2 m/S 717 mmHg 12%
    18:00 +38°C° 0 mm 3 m/S 718 mmHg 14%
    19:00 +36°C° 0 mm 3 m/S 718 mmHg 16%
    20:00 +33°C° 0 mm 4 m/S 718 mmHg 18%
    21:00 +33°C° 0 mm 4 m/S 718 mmHg 19%
    22:00 +32°C° 0 mm 5 m/S 718 mmHg 19%
    23:00 +30°C° 0 mm 6 m/S 719 mmHg 20%

    22 Dezember, Freitag

    Zeit Temperatur Niederschläge Wind Luftdruck Luftfeuchtigkeit
    00:00 +29°C° 0 mm 5 m/S 718 mmHg 20%
    01:00 +28°C° 0 mm 5 m/S 718 mmHg 21%
    02:00 +27°C° 0 mm 5 m/S 718 mmHg 21%
    03:00 +27°C° 0 mm 4 m/S 718 mmHg 22%
    04:00 +26°C° 0 mm 4 m/S 718 mmHg 22%
    05:00 +26°C° 0 mm 4 m/S 718 mmHg 23%
    06:00 +27°C° 0 mm 5 m/S 719 mmHg 22%
    07:00 +28°C° 0 mm 5 m/S 720 mmHg 21%
    08:00 +29°C° 0 mm 6 m/S 720 mmHg 20%
    09:00 +33°C° 0 mm 6 m/S 720 mmHg 17%
    10:00 +36°C° 0 mm 6 m/S 720 mmHg 15%
    11:00 +40°C° 0 mm 5 m/S 720 mmHg 12%
    12:00 +41°C° 0 mm 4 m/S 719 mmHg 12%
    13:00 +40°C° 0 mm 3 m/S 718 mmHg 11%
    14:00 +41°C° 0 mm 2 m/S 717 mmHg 11%
    15:00 +41°C° 0 mm 2 m/S 717 mmHg 11%
    16:00 +41°C° 0 mm 2 m/S 717 mmHg 11%
    17:00 +40°C° 0 mm 2 m/S 717 mmHg 12%
    18:00 +38°C° 0 mm 3 m/S 717 mmHg 14%
    19:00 +36°C° 0 mm 3 m/S 717 mmHg 16%
    20:00 +33°C° 0 mm 4 m/S 717 mmHg 18%
    21:00 +32°C° 0 mm 4 m/S 717 mmHg 19%
    22:00 +30°C° 0 mm 4 m/S 717 mmHg 21%
    23:00 +29°C° 0 mm 4 m/S 717 mmHg 22%
    Mehr zeigen

    XHprof extension not loaded